This demonstration page uses our WeatherBlox Daily Observations layout. Learn more.

Left ArrowRight Arrow

38.80484, -77.04692

Hourly Observations for May 27, 2015

Temp ( °F °C ) Dew Point ( °F °C ) Humidity (%) Winds ( mph kmh ) Pressure ( in mb ) Visibility ( mi km ) Precip ( " mm )
12:52 am 00:52 Mostly Cloudy 76 24.4 67 19.4 74 74 S 9 15 30.16 1021 10 16 0.00 0.00
1:52 am 01:52 Mostly Cloudy 76 24.4 67 19.4 74 74 S 8 13 30.16 1021 10 16 0.00 0.00
2:52 am 02:52 Mostly Cloudy 75 23.9 68 20 79 79 S 9 15 30.15 1021 10 16 0.00 0.00
3:49 am 03:49 Cloudy 75 24 68 20 78 78 S 9 15 30.15 1021 10 16 0.00 0.00
3:52 am 03:52 Cloudy 75 23.9 68 20 79 79 S 9 15 30.14 1021 10 16 0.00 0.00
4:52 am 04:52 Cloudy 76 24.4 69 20.6 79 79 S 8 13 30.14 1021 10 16 0.00 0.00
5:52 am 05:52 Mostly Cloudy 76 24.4 69 20.6 79 79 S 12 19 30.14 1021 10 16 0.00 0.00
6:52 am 06:52 Mostly Cloudy 76 24.4 69 20.6 79 79 S 10 17 30.16 1021 10 16 0.00 0.00
6:57 am 06:57 Partly Cloudy 75 24 70 21 83 83 S 10 17 30.15 1021 10 16 0.00 0.00
7:23 am 07:23 Mostly Cloudy 77 25 70 21 79 79 S 8 13 30.18 1022 10 16 0.00 0.00
7:32 am 07:32 Cloudy 75 24 70 21 83 83 SSW 13 20 30.18 1022 10 16 0.00 0.00
7:52 am 07:52 Cloudy 76 24.4 69 20.6 79 79 S 12 19 30.17 1022 10 16 0.00 0.00
8:52 am 08:52 Cloudy 77 25 69 20.6 77 77 S 10 17 30.18 1022 10 16 0.00 0.00
9:52 am 09:52 Cloudy 78 25.6 70 21.1 76 76 S 10 17 30.17 1022 10 16 0.00 0.00
10:20 am 10:20 Mostly Cloudy 81 27 70 21 70 70 S 10 17 30.18 1022 10 16 0.00 0.00
10:41 am 10:41 Mostly Cloudy 81 27 70 21 70 70 S 8 13 30.18 1022 10 16 0.00 0.00
10:52 am 10:52 Mostly Cloudy 81 27.2 70 21.1 69 69 SSW 12 19 30.16 1021 10 16 0.00 0.00
11:52 am 11:52 Partly Cloudy 83 28.3 71 21.7 67 67 S 10 17 30.16 1021 10 16 0.00 0.00
12:52 pm 12:52 Partly Cloudy 87 30.6 68 20 53 53 SSW 14 22 30.15 1021 10 16 0.00 0.00
1:52 pm 13:52 Mostly Cloudy 89 31.7 67 19.4 48 48 S 15 24 30.13 1020 10 16 0.00 0.00
2:52 pm 14:52 Mostly Cloudy 89 31.7 68 20 50 50 S 14 22 30.11 1020 10 16 0.00 0.00
3:52 pm 15:52 Mostly Cloudy 82 27.8 65 18.3 56 56 N 18 30 30.13 1020 10 16 0.00 0.00
4:04 pm 16:04 Mostly Cloudy 81 27 66 19 62 62 NNW 14 22 30.12 1020 10 16 0.00 0.00
4:52 pm 16:52 Mostly Cloudy 80 26.7 66 18.9 62 62 NNW 9 15 30.12 1020 10 16 0.00 0.00
5:52 pm 17:52 Mostly Cloudy 83 28.3 67 19.4 59 59 NNE 7 11 30.11 1020 10 16 0.00 0.03
6:52 pm 18:52 Mostly Cloudy 84 28.9 67 19.4 57 57 Calm 30.12 1020 10 16 0.00 0.00
7:52 pm 19:52 Mostly Cloudy 82 27.8 69 20.6 65 65 SE 8 13 30.11 1020 10 16 0.00 0.00
8:52 pm 20:52 Mostly Cloudy 80 26.7 69 20.6 69 69 ESE 5 7 30.12 1020 10 16 0.01 0.25
9:52 pm 21:52 Mostly Cloudy 80 26.7 68 20 67 67 Calm 30.14 1021 10 16 0.00 0.00
10:52 pm 22:52 Mostly Cloudy 77 25 68 20 74 74 SSE 3 6 30.14 1021 10 16 0.00 0.00
11:52 pm 23:52 Mostly Clear 77 25 69 20.6 77 77 Calm 30.14 1021 10 16 0.00 0.00

Powered by AerisWeather